Location: Arcones
(41.1182°N, 3.7238°W)
Time: 17:37:44
(UTC+00:00)

Meteor 1-20 Rocket - Pass Details

Date: 11 December 2025
Orbit: 818 x 890 km, 81.2° (Epoch: 15 January)

Event Time Altitude Azimuth Distance (km) Brightness Sun altitude
Rises 17:35:23 0° 351° (N) 3,358 7.2 -9.1°
Reaches altitude 10° 17:37:47 10° 352° (N) 2,420 6.4 -9.5°
Maximum altitude 17:43:16 84° 81° (E) 829 4.1 -10.5°
Drops below altitude 10° 17:48:43 10° 169° (S) 2,416 6.7 -11.4°
Sets 17:51:07 0° 170° (S) 3,352 7.5 -11.9°
